This demonstration page uses our WeatherBlox Daily Observations layout. Learn more.

Left ArrowRight Arrow

38.88101, -77.10428

Hourly Observations for July 11, 2021

Temp ( °F °C ) Dew Point ( °F °C ) Humidity (%) Winds ( mph kmh ) Pressure ( in mb ) Visibility ( mi km ) Precip ( " mm )
2:52 am 02:52 Cloudy 77 25 64 17.8 64 64 S 10 17 30.04 1017 10 16 N/A
3:52 am 03:52 Cloudy 75 23.9 64 17.8 69 69 SSE 7 11 30.04 1017 10 16 N/A
4:52 am 04:52 Cloudy 75 23.9 65 18.3 71 71 S 10 17 30.04 1017 10 16 N/A
5:52 am 05:52 Mostly Cloudy 75 23.9 66 18.9 74 74 SSE 6 9 30.05 1018 10 16 N/A
6:52 am 06:52 Cloudy 75 23.9 67 19.4 76 76 SSE 7 11 30.06 1018 10 16 N/A
7:52 am 07:52 Mostly Cloudy 76 24.4 68 20 77 77 S 6 9 30.07 1018 10 16 N/A
7:59 am 07:59 Mostly Cloudy 76 24.4 68 20 77 77 S 7 11 30.07 1018 10 16 N/A
8:52 am 08:52 Mostly Cloudy 78 25.6 69 20.6 74 74 S 9 15 30.06 1018 10 16 N/A
9:52 am 09:52 Mostly Cloudy 82 27.8 71 21.7 69 69 S 9 15 30.07 1018 10 16 N/A
10:52 am 10:52 Mostly Cloudy 84 28.9 73 22.8 70 70 S 13 20 30.06 1018 10 16 N/A
11:52 am 11:52 Mostly Cloudy 86 30 73 22.8 65 65 S 13 20 30.05 1018 10 16 N/A
12:52 pm 12:52 Mostly Cloudy 88 31.1 73 22.8 61 61 S 13 20 30.04 1017 10 16 N/A
1:52 pm 13:52 Mostly Cloudy 89 31.7 73 22.8 59 59 S 14 22 30.01 1016 10 16 N/A
2:52 pm 14:52 Mostly Cloudy 90 32.2 73 22.8 58 58 S 13 20 30.00 1016 10 16 N/A
3:52 pm 15:52 Partly Cloudy 89 31.7 72 22.2 57 57 S 12 19 29.99 1016 10 16 N/A
4:52 pm 16:52 Partly Cloudy 88 31.1 75 23.9 66 66 S 12 19 29.98 1015 10 16 N/A
5:52 pm 17:52 Partly Cloudy 88 31.1 73 22.8 61 61 S 16 26 29.96 1015 10 16 N/A
6:52 pm 18:52 Mostly Cloudy 88 31.1 73 22.8 61 61 S 14 22 29.96 1014 10 16 N/A
7:52 pm 19:52 Mostly Cloudy 86 30 73 22.8 65 65 S 13 20 29.96 1015 10 16 N/A
8:52 pm 20:52 Mostly Cloudy 85 29.4 74 23.3 70 70 S 9 15 29.96 1015 10 16 N/A
9:52 pm 21:52 Mostly Cloudy 84 28.9 73 22.8 70 70 S 10 17 29.99 1016 10 16 N/A
10:52 pm 22:52 Mostly Cloudy 83 28.3 74 23.3 74 74 S 9 15 30.01 1016 10 16 N/A
11:52 pm 23:52 Partly Cloudy 82 27.8 73 22.8 74 74 SSW 10 17 30.03 1017 10 16 N/A

Powered by AerisWeather